Weather Service Report


507 
ASUS43 KLOT 250509
RWRIL 

ILLINOIS REGIONAL WEATHER ROUNDUP
NATIONAL WEATHER SERVICE CHICAGO/ROMEOVILLE IL
1200 AM CDT THU AUG 25 2016

NOTE: "FAIR" INDICATES FEW OR NO CLOUDS BELOW 12,000 FEET WITH NO
SIGNIFICANT WEATHER AND/OR OBSTRUCTIONS TO VISIBILITY.

* THESE STATIONS ARE NOT UNDER NWS QUALITY CONTROL. THEY ALSO MAY NOT
  REPORT WEATHER SUCH AS PRECIPITATION OR FOG.

ILZ001-002-007-009-015-016-024-250600-
NORTHWEST ILLINOIS
  
CITY           SKY/WX    TMP DP  RH WIND       PRES   REMARKS
MOLINE         NOT AVBL                                               
STERLING*      MOCLDY    72  71  97 VRB3      29.97F                  
SAVANNA*       CLOUDY    73  72  98 SE3       29.96S                  
$$

ILZ003-004-008-010-011-017-018-250600-
NORTH CENTRAL ILLINOIS
  
CITY           SKY/WX    TMP DP  RH WIND       PRES   REMARKS
ROCKFORD       LGT RAIN  73  70  90 S6        29.97F                  
FREEPORT*      CLOUDY    72  70  95 SW7       29.99R                  
ROCHELLE*      TSTM      73  72  97 S6        29.98F                  
DE KALB*       TSTM      73  72  95 SW6       29.99S                  
$$

ILZ005-006-012>014-019>023-250600-
NORTHEAST ILLINOIS
  
CITY           SKY/WX    TMP DP  RH WIND       PRES   REMARKS
CHICAGO-OHARE  CLOUDY    77  71  82 SW7       29.96F                  
CHICAGO-MIDWAY MOCLDY    78  70  76 SW7       29.97S HX  80           
AURORA         NOT AVBL                                               
LANSING*       PTCLDY    71  68  89 CALM      29.99R                  
JOLIET*        PTCLDY    74  72  94 CALM      29.98S                  
WAUKEGAN       CLOUDY    75  72  90 SW9       29.94S                  
DUPAGE AIRPORT NOT AVBL                                               
KANKAKEE*      CLEAR     70  69  97 CALM      30.00S                  
WHEELING       NOT AVBL                                               
MORRIS*        CLOUDY    72  70  93 CALM      29.96F                  
ROMEOVILLE*    PTCLDY    73  69  88 S7        29.97F                  
NORTHERLY ISL    N/A     78  69  73 SW2         N/A  HX  80           
$$

LMZ740>746-250600-
SOUTHERN LAKE MICHIGAN
  
STATION/POSITION SKY/WX   TEMP    WIND        PRES    VSBY  WAVE
                          AIR SEA DIR/SP/G                  HT/PER
                          (F)     (DEG/KT/KT) (MB)    (MI)  (FT/S)
SOUTHERN BUOY              76 75  190/  8/ 10 1012.9          1
WILMETTE HARBOR            73 71  240/  6/  8   N/A           0
HARRISON CRIB              80     210/ 10/ 11   N/A
BURNHAM HARBOR             78      CALM  /  7   N/A
CALUMET HARBOR             76     210/  5/  8 1014.6S
BURNS HARBOR               76     200/  9/ 15 1015.6F
MICHIGAN CITY              76     190/ 11/ 12   N/A
MICHIGAN CITY 6N           75 74  210/  6/  8   N/A           1/ 3
ST. JOSEPH                 75 75  220/  8/ 10 1014.5R         1/ 3
$$

ILZ025>027-034>036-040-047-049-050-058-095>099-250600-
WEST-CENTRAL ILLINOIS
  
CITY           SKY/WX    TMP DP  RH WIND       PRES   REMARKS
QUINCY         LGT RAIN  76  74  93 N13       29.99R                  
GALESBURG*     CLOUDY    71  69  92 S3        29.99S                  
MACOMB*        RAIN      70  69  97 SW5       30.04S                  
JACKSONVILLE*  CLOUDY    75  73  92 CALM      30.00R                  
PITTSFIELD*    MOCLDY    77  76  96 CALM      30.02R                  
$$

ILZ028>032-037-038-041>044-048-051>054-059>061-250600-
CENTRAL ILLINOIS
  
CITY           SKY/WX    TMP DP  RH WIND       PRES   REMARKS
PONTIAC        MOCLDY    73  73  99 CALM      29.99S                  
BLOOMINGTON    PTCLDY    75  73  93 S8        30.01F                  
DECATUR        MOCLDY    78  73  84 S7        30.01F HX  81           
PEORIA         CLOUDY    77  75  93 CALM      29.98S                  
LACON*         MOCLDY    74  68  80 NW8G17    29.98R                  
LINCOLN*       MOCLDY    76  75  98 CALM      29.99R                  
SPRINGFIELD    NOT AVBL                                               
TAYLORVILLE    CLEAR     76  74  96 S6        30.01S                  
$$

ILZ033-039-045-046-055>057-062-063-250600-
EAST-CENTRAL ILLINOIS
  
CITY           SKY/WX    TMP DP  RH WIND       PRES   REMARKS
CHAMPAIGN      CLEAR     76  73  91 S8        30.01F                  
RANTOUL*       CLEAR     74  73  98 S3        30.00F FOG              
PARIS*         CLOUDY    74  72  92 CALM      30.03S                  
$$

ILZ079-100>102-250600-
SOUTHWEST ILLINOIS
  
CITY           SKY/WX    TMP DP  RH WIND       PRES   REMARKS
ALTON          CLEAR     80  75  84 S8        30.02R HX  84           
BELLEVILLE     CLEAR     80  77  93 S9        30.00F HX  85           
CAHOKIA*       CLEAR     82  74  76 S6        30.01S HX  88           
SPARTA*        CLEAR     80  75  86 SW9       30.05R HX  85           
$$

ILZ064>066-069>071-074>076-080>082-084>086-088>090-092>094-250600-
SOUTH-CENTRAL ILLINOIS
  
CITY           SKY/WX    TMP DP  RH WIND       PRES   REMARKS
CARBONDALE     CLEAR     77  73  87 SW6       30.05R                  
CAIRO*         CLEAR     78  75  91 SW6       30.06S HX  80           
EFFINGHAM*     PTCLDY    78  77  97 S3        30.04S HX  81           
MARION         CLEAR     79  75  89 SW5       30.06S HX  82           
MT. VERNON     CLEAR     79  72  78 SW8       30.05S HX  82           
CENTRALIA*     CLEAR     80  76  89 S7        30.03S HX  85           
SALEM*         CLEAR     81  75  81 SW10      30.03S HX  87           
METROPOLIS*    CLEAR     79  75  86 S3        30.07S HX  83           
$$

ILZ067-068-072-073-078-083-087-091-250600-
SOUTHEAST ILLINOIS
  
CITY           SKY/WX    TMP DP  RH WIND       PRES   REMARKS
LAWRENCEVILLE  CLOUDY    78  75  90 S8        30.04S HX  81           
FLORA*         CLOUDY    79  76  92 S6        30.04S HX  83           
FAIRFIELD*     CLEAR     78  76  95 S3        30.04R HX  80           
HARRISBURG*    CLEAR     77  75  93 SW3       30.06S                  
ROBINSON*      MOCLDY    78  75  88 SW9       30.03S HX  81           
CARMI*         CLEAR     76  74  95 S3        30.05S                  
$$

ABBREVIATIONS USED IN REMARKS
   TC - TEMPERATURE IN CELSIUS
  WCI - WIND CHILL INDEX
   HX - HEAT INDEX
  VSB - VISIBILITY
$$

  

Return to Home page


Western Regional Climate Center, wrcc@dri.edu